Regional Weather Roundup
Issued by NWS

Home | Current Version | Previous Version | Graphics & Text | Print | Product List | Glossary On
Versions: 1 2 3 4 5 6 7 8 9 10 11 12 13 14 15 16 17 18 19 20 21 22 23 24 25 26 27 28 29 30 31 32 33 34 35 36 37 38 39 40 41 42 43 44 45 46 47 48 49 50
000
ASUS45 KCYS 210410
RWRWY

WYOMING REGIONAL WEATHER ROUNDUP
NATIONAL WEATHER SERVICE CHEYENNE WY
900 PM MST SAT DEC 20 2014

NOTE:  "FAIR" INDICATES FEW OR NO CLOUDS BELOW 12,000 FEET
WITH NO SIGNIFICANT WEATHER AND/OR OBSTRUCTIONS TO VISIBILITY.

WYZ001-210500-
YELLOWSTONE NATIONAL PARK

CITY           SKY/WX    TMP DP  RH WIND       PRES   REMARKS
LK YELLOWSTONE   N/A     26  22  84 CALM      29.87F
W YELLOWSTONE  NOT AVBL

$$
WYZ002>013-054>058-071-098>099-210500-
NORTHERN WYOMING

CITY           SKY/WX    TMP DP  RH WIND       PRES   REMARKS
JACKSON        CLOUDY    30  28  93 SW7       29.90F WCI  23
CODY           FAIR      28  21  74 S10       29.76F WCI  19
GREYBULL       FAIR      14  12  92 VRB7      29.83S WCI   4
WORLAND        FAIR      11  10  96 SW3       29.81F
SHERIDAN       FAIR      24  17  74 CALM      29.75F
BUFFALO        FAIR      29  17  61 W5        29.77F WCI  24
GILLETTE       FAIR      33  24  69 SW15      29.76F WCI  23
HULETT           N/A    N/A N/A N/A MISG        N/A
NEWCASTLE      FAIR      34  27  75 SE6       29.84S WCI  29

$$
WYZ014>020-022>026-101>103-210500-
CENTRAL WYOMING

CITY           SKY/WX    TMP DP  RH WIND       PRES   REMARKS
BIG PINEY      CLOUDY    25  20  81 NE5       29.95F WCI  19
PINEDALE       CLOUDY    23  23 100 NW3       29.97S
DUBOIS         NOT AVBL
LANDER         FAIR      18  15  88 NW7       29.84S WCI   9
RIVERTON       FAIR      13  12  96 NE3       29.86F
CASPER         FAIR      31  25  78 SW15      29.84F WCI  20
DOUGLAS        FAIR      35  25  66 NW5       29.86F WCI  31

$$
WYZ021-027>030-104>119-210500-
SOUTHERN WYOMING

CITY           SKY/WX    TMP DP  RH WIND       PRES   REMARKS
EVANSTON       CLOUDY    30  29  96 SW12      30.01F WCI  20
KEMMERER       CLOUDY    30  28  93 W8        29.98F WCI  23
FORT BRIDGER   CLOUDY    33  31  92 W14G20    30.03F WCI  23
ROCK SPRINGS   CLOUDY    29  26  89 SW18      29.98S WCI  16
DIXON          CLOUDY    31  29  90 SW12      30.04F WCI  22
RAWLINS        FAIR      28  24  85 W20G31    29.93F WCI  15
SARATOGA       FAIR      28  23  80 SW16      29.96F WCI  17
LARAMIE        MOCLDY    26  19  74 SW13      29.91S WCI  15
CHEYENNE       CLOUDY    33  16  49 SW8       29.91F WCI  26
TORRINGTON     CLOUDY   N/A N/A N/A W7        29.88F
PINE BLUFFS    CLOUDY    32  23  69 W3        29.93S

$$


USA.gov is the U.S. government's official web portal to all federal, state and local government web resources and services.